Погода в Браньске

Польша     52°44′30″N   22°50′18″E
темп.,
°C
ветер,
м/с
пор.,
м/с
влажн.,
%
обл.,
%
осадки,
мм/ч
давл.,
гПа
погр.,
м
28 сентября, вт
вт2823:00+7в410915 0.0 1025233
02:00+6вюв410925 0.0 1026249
05:00+5в49930 0.0 1026183
08:00+7вюв49825 0.0 1026291
11:00+13вюв67605 0.0 1027941
14:00+14юв565413 0.0 10261286
17:00+13вюв476198 0.0 1026331
20:00+9вюв41076100 0.0 1028223
29 сентября, ср
ср2923:00+8вюв4108387 0.0 1028183
02:00+7вюв4986100 0.0 1029166
05:00+6вюв4108893 0.0 1028175
08:00+8вюв511785 0.0 1028320
11:00+14юв710554 0.0 10281257
14:00+15юв894914 0.0 10261573
17:00+14юв611570 0.0 1025739
20:00+10вюв715665 0.0 1026488
30 сентября, чт
чт3023:00+10юв716676 0.0 1026492
02:00+9юв7167212 0.0 1025440
05:00+8юв71475100 0.0 1025401
08:00+9ююв61273100 0.0 1025406
11:00+11ю5870100 0.3 1026526
14:00+9ю2590100 1.7 1027222
17:00+9юз1298100 2.4 1027120
20:00+10юз2298100 4.5 102844
1 октября, пт
пт123:00+9юз239298 0.0 102946
02:00+7юз22907 0.0 103011
05:00+7юз00855 0.0 103010
08:00+9вюв117834 0.0 103040
11:00+13ююв236597 0.0 1029500
14:00+15юв346530 0.0 1027962
17:00+13юв367672 0.0 1026333
20:00+9юв36826 0.0 1026112
2 октября, сб
сб223:00+8ююв3686100 0.0 102589
02:00+8ююв4990100 0.0 1024152
05:00+8ююв498997 0.0 1022163
08:00+9ююв4107140 0.0 1022225
11:00+15ю69636 0.0 1021527
14:00+18ю785618 0.0 1019998
17:00+17ююв5106461 0.0 1019353
20:00+12ююв5137299 0.0 1019277